SCP
0 0 0 0 0 0 0 0 0 0 0 0 0 0 0 0 0 0 0 0 0 0 0 0 0 0 0 0 0 0 0 0
0 0 0 0 0 0 0 0 0 0 0 0 0 0 0 0 0 0 0 0 0 0 0 0 0 0 0 0 0 0 0 0
-0 -0 -0 0 0 0 0 0 0 0 0 0 0 0 0 0 0 0 0 0 0 0 0 0 0 0 0 0 0 0 0 0
-0 -0 0 0 0 0 0 0 0 0 0 0 0 0 0 0 0 0 0 0 0 0 0 0 0 0 0 0 0 0 0 0
0 0 0 0 0 0 0 0 0 0 0 0 0 0 0 0 0 0 0 0 0 0 0 0 0 0 0 0 0 0 0 0
0 0 0 0 0 0 0 0 0 0 0 0 0 0 0 0 0 0 0 0 0 0 0 0 0 0 0 0 0 0 0 0
0 0 0 0 0 0 0 0 0 0 0 0 0 0 0 0 0 0 0 0 0 0 0 0 0 0 0 0 0 0 0 0
0 0 0 0 0 0 0 0 0 0 0 0 0 0 0 0 0 0 0 0 0 0 0 0 0 0 0 0 0 0 0 0
0 0 0 0 0 0 0 0 0 0 0 0 0 0 0 0 0 0 0 0 0 0 0 0 0 0 0 0 0 0 0 0
0 0 0 0 0 0 0 0 0 0 0 0 0 0 0 0 0 0 0 0 0 0 0 0 0 0 0 0 0 0 0 0
0 0 0 0 0 0 0 0 0 0 0 0 0 0 0 0 0 0 0 0 0 0 0 0 0 0 0 0 0 0 0 0
0 0 0 0 0 0 0 0 0 0 0 0 0 0 0 0 0 0 0 0 0 0 0 0 0 0 0 0 0 0 0 0
0 0 0 0 0 0 0 0 0 0 0 0 0 0 0 0 0 0 0 0 0 0 0 0 0 0 0 0 0 0 0 0
0 0 0 0 0 0 0 0 0 0 0 0 0 0 0 0 0 0 0 0 0 0 0 0 0 0 0 0 0 0 0 0
0 0 0 0 0 0 0 0 0 0 0 0 0 0 0 0 0 0 0 0 0 0 0 0 0 0 0 0 0 0 0 0
0 0 0 0 0 0 0 0 0 0 0 0 0 0 0 0 0 0 0 0 0 0 0 0 0 0 0 0 0 0 0 0
0 0 0 0 0 0 0 0 0 0 0 0 0 0 0 0 0 0 0 0 0 0 0 0 0 0 0 0 0 0 0 0
0 0 0 0 0 0 0 0 0 0 0 0 0 0 0 0 0 0 0 0 0 0 0 0 0 0 0 0 0 0 0 0
0 0 0 0 0 0 0 0 0 0 0 0 0 0 0 0 0 0 0 0 0 0 0 0 0 0 0 0 0 0 0 0
0 0 0 0 0 0 0 0 0 0 0 0 0 0 0 0 0 0 0 0 0 0 0 0 0 0 0 0 0 0 0 0
Wind_Speed_500mb
27 24 22 27 30 35 37 39 41 40 39 38 38 38 38 38 39 41 44 45 46 47 47 47 44 40 35 32 30 32 33 34
30 28 28 32 38 40 44 45 44 43 43 43 43 42 42 44 44 45 44 44 45 44 43 40 38 35 34 33 33 34 34 35
39 41 38 39 44 49 49 48 47 48 51 53 51 49 49 49 49 47 45 44 44 42 41 39 38 37 38 38 37 38 38 38
68 55 52 48 47 51 53 58 57 59 60 62 62 58 55 54 53 50 48 47 47 46 44 43 42 43 43 42 41 40 40 39
70 73 66 68 72 71 69 69 69 71 72 72 70 67 61 59 58 55 54 53 51 50 49 49 47 46 45 44 43 42 42 42
74 69 69 72 73 74 78 81 81 82 84 84 79 74 69 65 64 62 60 59 57 55 53 51 49 48 47 46 46 46 47 49
67 67 71 72 75 78 80 79 80 85 89 89 87 82 78 72 70 69 66 64 63 60 57 55 54 51 51 51 50 51 51 50
71 70 70 71 73 75 73 72 75 78 82 84 87 90 87 80 77 75 73 69 67 63 61 59 55 56 55 55 54 52 52 52
52 55 56 59 63 67 68 69 70 72 75 79 81 87 91 87 84 80 75 71 68 64 62 59 56 58 57 56 56 55 53 53
33 36 48 56 57 61 63 61 64 69 73 77 79 79 88 91 88 82 75 70 67 63 60 58 55 59 57 55 57 58 56 54
53 59 58 57 60 62 64 65 65 62 61 66 71 72 78 86 88 81 74 71 66 65 64 60 56 60 55 56 57 59 59 54
51 57 58 60 62 63 60 58 60 61 59 58 61 63 66 71 79 80 74 73 69 68 65 63 61 59 56 57 58 56 52 50
57 56 52 54 57 60 62 62 61 62 63 60 56 54 60 61 71 76 75 72 71 70 67 67 64 60 54 43 47 55 55 51
62 67 65 62 62 67 66 65 62 60 61 60 59 57 55 55 65 73 76 75 75 74 70 69 62 56 48 48 47 51 50 47
71 75 77 68 64 65 67 66 64 63 59 57 57 60 59 61 66 74 81 80 77 78 77 74 69 64 57 51 49 47 45 43
74 78 79 74 69 64 63 64 64 60 58 56 55 57 58 62 66 73 77 75 74 76 74 72 74 73 68 58 48 39 32 31
75 75 75 72 68 62 58 57 57 58 54 51 53 55 56 59 62 63 64 59 63 64 64 63 64 66 65 56 47 43 46 38
67 67 67 65 62 58 54 51 52 52 51 50 51 53 56 56 57 60 48 45 51 51 52 54 54 56 54 48 43 42 43 37
49 50 53 53 52 49 46 44 44 44 43 43 44 46 50 52 54 54 53 52 42 35 40 42 44 45 46 42 44 47 35 33
44 45 45 45 43 43 41 36 35 36 36 37 38 38 42 44 45 45 48 52 46 41 35 35 41 45 40 46 52 42 38 31
Wind_Direction_500mb
342 319 287 267 259 257 261 267 272 270 268 266 266 268 268 267 265 262 261 262 261 262 260 260 259 254 248 244 242 240 240 238
342 323 298 277 268 268 272 279 278 274 270 266 265 266 267 266 266 264 262 262 260 258 256 252 249 247 245 244 243 243 241 240
344 326 308 296 280 278 280 285 285 277 268 264 263 263 263 264 264 262 260 256 253 250 247 245 246 248 249 248 246 242 239 236
311 310 303 299 298 293 291 287 280 276 273 268 264 264 264 263 261 258 255 251 247 245 245 247 249 248 246 244 242 239 235 233
301 307 305 301 300 298 296 293 283 278 275 272 268 265 263 261 260 258 255 251 249 247 247 247 246 245 245 243 239 236 232 229
298 300 303 300 298 296 294 293 288 279 275 275 272 265 261 257 256 253 251 250 249 249 249 248 246 245 242 239 236 235 232 228
298 297 300 300 298 297 297 296 294 285 280 274 269 263 260 258 255 253 252 251 251 251 249 247 245 242 238 235 235 233 230 226
301 304 306 305 303 300 300 296 293 291 287 278 270 263 260 257 254 253 251 250 249 247 245 242 239 239 238 236 233 231 228 225
307 305 308 310 309 307 306 300 294 289 285 281 273 264 258 255 253 250 247 246 245 244 241 238 237 239 238 236 233 232 228 227
313 315 318 315 313 312 313 314 306 295 289 286 280 269 259 254 251 249 247 246 245 242 241 240 237 240 240 237 230 227 229 229
302 306 310 310 310 309 310 309 310 308 300 291 285 277 266 258 253 251 248 247 243 242 241 240 237 239 239 234 223 224 226 225
302 304 306 305 305 305 307 309 306 304 300 295 289 283 274 262 252 247 244 242 239 237 237 237 234 235 237 236 224 227 230 229
308 307 309 310 306 302 301 304 302 301 298 294 290 283 274 262 251 244 240 239 238 235 232 231 230 228 232 232 230 230 229 229
308 307 308 306 302 300 300 298 299 296 292 287 284 273 262 258 250 242 239 235 234 231 228 225 224 220 224 229 232 231 232 229
310 310 308 307 303 299 297 295 294 295 293 286 277 269 262 251 240 235 237 236 232 231 225 222 220 218 217 225 232 232 230 220
308 307 307 307 303 300 296 294 293 289 288 286 276 266 255 247 242 236 237 239 239 236 234 228 222 222 223 228 224 231 231 221
307 306 305 305 305 303 299 295 292 290 287 282 276 268 258 247 240 238 240 239 241 240 242 237 235 228 226 222 222 222 231 233
309 310 309 308 306 305 303 298 292 288 283 278 272 263 256 249 243 239 239 234 235 238 239 237 230 219 217 217 215 224 229 218
320 320 319 318 317 314 309 302 294 288 284 280 274 268 260 252 246 242 235 217 214 218 224 220 209 199 188 185 188 199 223 225
324 323 321 321 320 316 313 307 300 294 285 279 271 264 256 250 242 234 222 216 206 186 190 182 182 184 179 193 215 227 229 238
Wind_Speed_850mb
27 24 22 27 30 35 37 39 41 40 39 38 38 38 38 38 39 41 44 45 46 47 47 47 44 40 35 32 30 32 33 34
30 28 28 32 38 40 44 45 44 43 43 43 43 42 42 44 44 45 44 44 45 44 43 40 38 35 34 33 33 34 34 35
39 41 38 39 44 49 49 48 47 48 51 53 51 49 49 49 49 47 45 44 44 42 41 39 38 37 38 38 37 38 38 38
68 55 52 48 47 51 53 58 57 59 60 62 62 58 55 54 53 50 48 47 47 46 44 43 42 43 43 42 41 40 40 39
70 73 66 68 72 71 69 69 69 71 72 72 70 67 61 59 58 55 54 53 51 50 49 49 47 46 45 44 43 42 42 42
74 69 69 72 73 74 78 81 81 82 84 84 79 74 69 65 64 62 60 59 57 55 53 51 49 48 47 46 46 46 47 49
67 67 71 72 75 78 80 79 80 85 89 89 87 82 78 72 70 69 66 64 63 60 57 55 54 51 51 51 50 51 51 50
71 70 70 71 73 75 73 72 75 78 82 84 87 90 87 80 77 75 73 69 67 63 61 59 55 56 55 55 54 52 52 52
52 55 56 59 63 67 68 69 70 72 75 79 81 87 91 87 84 80 75 71 68 64 62 59 56 58 57 56 56 55 53 53
33 36 48 56 57 61 63 61 64 69 73 77 79 79 88 91 88 82 75 70 67 63 60 58 55 59 57 55 57 58 56 54
53 59 58 57 60 62 64 65 65 62 61 66 71 72 78 86 88 81 74 71 66 65 64 60 56 60 55 56 57 59 59 54
51 57 58 60 62 63 60 58 60 61 59 58 61 63 66 71 79 80 74 73 69 68 65 63 61 59 56 57 58 56 52 50
57 56 52 54 57 60 62 62 61 62 63 60 56 54 60 61 71 76 75 72 71 70 67 67 64 60 54 43 47 55 55 51
62 67 65 62 62 67 66 65 62 60 61 60 59 57 55 55 65 73 76 75 75 74 70 69 62 56 48 48 47 51 50 47
71 75 77 68 64 65 67 66 64 63 59 57 57 60 59 61 66 74 81 80 77 78 77 74 69 64 57 51 49 47 45 43
74 78 79 74 69 64 63 64 64 60 58 56 55 57 58 62 66 73 77 75 74 76 74 72 74 73 68 58 48 39 32 31
75 75 75 72 68 62 58 57 57 58 54 51 53 55 56 59 62 63 64 59 63 64 64 63 64 66 65 56 47 43 46 38
67 67 67 65 62 58 54 51 52 52 51 50 51 53 56 56 57 60 48 45 51 51 52 54 54 56 54 48 43 42 43 37
49 50 53 53 52 49 46 44 44 44 43 43 44 46 50 52 54 54 53 52 42 35 40 42 44 45 46 42 44 47 35 33
44 45 45 45 43 43 41 36 35 36 36 37 38 38 42 44 45 45 48 52 46 41 35 35 41 45 40 46 52 42 38 31
Wind_Direction_850mb
342 319 287 267 259 257 261 267 272 270 268 266 266 268 268 267 265 262 261 262 261 262 260 260 259 254 248 244 242 240 240 238
342 323 298 277 268 268 272 279 278 274 270 266 265 266 267 266 266 264 262 262 260 258 256 252 249 247 245 244 243 243 241 240
344 326 308 296 280 278 280 285 285 277 268 264 263 263 263 264 264 262 260 256 253 250 247 245 246 248 249 248 246 242 239 236
311 310 303 299 298 293 291 287 280 276 273 268 264 264 264 263 261 258 255 251 247 245 245 247 249 248 246 244 242 239 235 233
301 307 305 301 300 298 296 293 283 278 275 272 268 265 263 261 260 258 255 251 249 247 247 247 246 245 245 243 239 236 232 229
298 300 303 300 298 296 294 293 288 279 275 275 272 265 261 257 256 253 251 250 249 249 249 248 246 245 242 239 236 235 232 228
298 297 300 300 298 297 297 296 294 285 280 274 269 263 260 258 255 253 252 251 251 251 249 247 245 242 238 235 235 233 230 226
301 304 306 305 303 300 300 296 293 291 287 278 270 263 260 257 254 253 251 250 249 247 245 242 239 239 238 236 233 231 228 225
307 305 308 310 309 307 306 300 294 289 285 281 273 264 258 255 253 250 247 246 245 244 241 238 237 239 238 236 233 232 228 227
313 315 318 315 313 312 313 314 306 295 289 286 280 269 259 254 251 249 247 246 245 242 241 240 237 240 240 237 230 227 229 229
302 306 310 310 310 309 310 309 310 308 300 291 285 277 266 258 253 251 248 247 243 242 241 240 237 239 239 234 223 224 226 225
302 304 306 305 305 305 307 309 306 304 300 295 289 283 274 262 252 247 244 242 239 237 237 237 234 235 237 236 224 227 230 229
308 307 309 310 306 302 301 304 302 301 298 294 290 283 274 262 251 244 240 239 238 235 232 231 230 228 232 232 230 230 229 229
308 307 308 306 302 300 300 298 299 296 292 287 284 273 262 258 250 242 239 235 234 231 228 225 224 220 224 229 232 231 232 229
310 310 308 307 303 299 297 295 294 295 293 286 277 269 262 251 240 235 237 236 232 231 225 222 220 218 217 225 232 232 230 220
308 307 307 307 303 300 296 294 293 289 288 286 276 266 255 247 242 236 237 239 239 236 234 228 222 222 223 228 224 231 231 221
307 306 305 305 305 303 299 295 292 290 287 282 276 268 258 247 240 238 240 239 241 240 242 237 235 228 226 222 222 222 231 233
309 310 309 308 306 305 303 298 292 288 283 278 272 263 256 249 243 239 239 234 235 238 239 237 230 219 217 217 215 224 229 218
320 320 319 318 317 314 309 302 294 288 284 280 274 268 260 252 246 242 235 217 214 218 224 220 209 199 188 185 188 199 223 225
324 323 321 321 320 316 313 307 300 294 285 279 271 264 256 250 242 234 222 216 206 186 190 182 182 184 179 193 215 227 229 238